Wind_Speed
15 15 15 15 15 15 16 17 17 16 15 15 15 14 13 12 12 11 11 10 9 8 8 7 7 7 7 7 7 7 7 7 8 7 7 8 7 7 7 7 7 6 5 6 6 6 5 4 4
15 15 15 16 17 17 17 17 17 16 15 15 15 14 14 12 12 11 11 10 9 9 8 7 7 7 7 7 7 7 7 7 7 7 7 7 7 6 6 6 6 5 5 6 6 5 5 5 4
15 15 15 16 17 17 17 17 17 16 15 15 15 14 13 13 12 11 11 10 9 8 8 7 7 7 7 7 7 7 7 7 6 6 6 6 6 5 5 6 5 6 6 6 5 5 5 4 4
14 15 16 17 17 17 17 17 16 16 16 15 15 14 13 13 12 11 11 10 9 8 8 7 7 7 6 7 7 7 6 7 6 6 6 6 5 5 5 5 6 6 6 6 5 6 5 3 3
14 15 16 16 17 17 16 16 16 16 16 16 15 14 13 13 11 11 10 10 9 8 8 8 8 8 7 7 6 6 6 6 6 6 6 5 5 5 5 5 6 5 5 5 5 5 4 4 4
16 16 16 16 17 17 16 16 16 16 15 14 14 14 13 12 11 10 10 9 9 8 9 9 8 8 8 8 7 7 7 7 7 6 5 5 5 5 5 5 5 5 4 5 5 4 4 3 4
16 16 16 16 17 16 17 17 16 15 14 14 13 13 13 12 11 10 10 9 9 9 9 9 9 8 8 8 8 7 7 7 7 6 5 5 5 6 5 5 5 4 4 4 4 3 3 3 3
15 16 17 16 16 16 16 17 16 15 14 13 13 12 12 11 10 10 10 9 9 9 9 9 8 8 8 7 7 7 6 6 6 5 5 5 5 5 5 4 4 4 4 4 4 4 3 3 2
15 16 15 15 15 15 15 16 15 14 13 12 12 12 11 11 10 10 10 9 9 8 8 8 8 8 7 6 6 6 5 5 5 4 4 4 4 4 3 3 4 4 3 3 3 3 3 3 2
14 14 15 15 15 15 15 15 14 13 13 12 12 12 11 10 10 10 9 9 8 8 7 7 7 7 7 6 6 5 4 4 4 4 3 3 3 3 3 3 3 3 3 3 3 2 2 3 2
14 14 14 14 14 15 15 14 14 14 13 12 11 11 11 11 10 9 9 8 8 7 7 7 7 7 7 7 6 5 4 3 3 3 3 2 2 2 2 3 3 2 3 3 2 2 3 2 2
12 13 13 14 14 14 15 14 14 14 13 11 11 11 11 10 10 9 8 8 8 7 7 6 6 7 6 6 6 5 4 3 2 3 2 2 2 2 2 2 2 2 3 3 3 3 3 2 2
10 11 12 13 13 13 13 14 13 13 13 12 11 11 10 11 10 9 9 9 8 7 7 6 5 5 5 5 5 4 3 3 2 3 2 2 1 1 1 1 1 2 3 4 4 4 4 4 3
8 9 10 11 11 12 12 13 13 13 12 11 10 10 10 10 10 10 8 8 8 7 7 6 5 5 4 4 4 4 3 2 2 2 2 1 1 1 1 1 1 2 3 4 5 5 4 5 4
5 7 8 9 10 10 11 12 12 11 10 10 9 9 9 9 9 9 8 7 7 8 7 6 6 5 4 3 4 3 3 2 1 1 1 0 1 1 2 2 2 2 3 4 4 5 5 5 4
4 5 6 7 7 9 9 11 11 10 10 9 8 8 8 8 9 8 8 7 7 7 7 6 6 5 5 4 3 3 2 2 1 1 1 1 1 1 2 3 3 3 3 4 4 5 5 5 4
1 2 4 6 6 7 8 9 11 11 11 10 9 8 8 7 7 8 8 8 7 6 5 6 5 5 5 4 3 2 1 1 0 0 1 1 1 1 2 3 3 4 4 4 5 5 5 5 5
2 1 1 3 4 4 5 7 8 10 11 11 10 9 8 7 7 7 7 7 6 5 5 5 4 4 4 4 3 2 2 1 1 1 1 1 1 2 3 3 3 4 5 5 5 6 6 7 7
4 3 2 2 3 3 4 5 6 9 9 10 10 9 8 7 7 7 7 6 6 5 5 5 5 4 3 3 3 3 2 1 2 2 2 2 3 3 3 3 4 4 5 5 6 6 7 7 8
7 6 5 5 5 4 3 4 6 7 8 10 9 9 9 7 7 7 7 7 6 6 6 5 5 5 4 4 4 4 3 3 3 3 4 4 4 4 4 4 5 5 6 6 7 7 8 8 8
10 8 7 7 7 6 5 5 6 7 8 9 9 9 8 8 8 8 7 7 7 6 6 6 6 6 5 5 5 5 5 4 5 5 5 5 6 5 6 6 6 6 7 7 7 8 8 9 9
12 11 10 10 10 9 9 8 7 8 8 9 9 9 9 9 8 8 8 8 7 7 7 7 7 6 6 6 6 6 6 5 6 6 7 7 7 7 7 7 7 7 8 8 8 8 9 8 9
12 12 13 13 12 11 11 10 8 9 9 9 9 10 10 10 9 8 8 8 8 8 8 8 7 7 7 6 7 7 6 6 6 7 7 8 8 9 9 9 9 9 10 9 9 9 9 9 9
14 14 14 14 14 13 12 12 10 10 11 10 10 10 10 10 11 10 9 9 8 8 9 9 9 7 7 7 7 7 7 7 7 7 8 8 9 9 10 10 12 12 11 11 11 11 11 11 11
15 15 16 15 15 14 14 14 12 12 12 12 12 11 11 11 12 11 10 9 9 9 9 10 10 8 8 7 7 7 8 8 9 9 9 9 10 10 11 11 12 13 13 13 13 13 13 13 13
15 16 16 17 17 16 16 16 15 14 13 12 12 12 12 12 12 12 11 10 10 10 10 11 11 10 10 9 8 8 9 10 10 11 11 11 11 12 12 13 13 14 14 15 15 15 15 15 14
16 17 18 19 19 19 18 18 17 16 14 14 14 14 14 14 14 13 13 11 10 11 12 13 13 13 12 12 11 11 11 11 12 13 13 13 13 14 14 15 15 15 16 16 16 16 16 16 16
18 18 19 20 20 20 19 18 17 17 16 16 16 15 15 16 16 15 15 13 12 13 13 13 14 15 14 14 13 13 13 14 14 15 15 15 16 16 16 16 16 17 17 18 17 18 18 18 18
19 20 20 21 21 21 20 18 17 17 16 16 16 16 17 17 17 17 15 15 14 14 14 15 15 15 14 14 14 15 15 17 17 16 17 17 18 18 18 18 18 19 19 19 19 19 19 20 20
21 21 22 23 23 23 22 19 18 18 18 18 17 18 19 18 18 18 17 16 16 16 16 17 16 16 15 15 16 17 17 17 17 16 17 18 18 19 20 20 20 20 20 21 21 21 21 21 20
Wind_Direction
81 80 77 75 77 77 75 72 69 66 64 64 63 62 62 64 65 65 62 67 72 78 81 83 83 89 92 93 99 102 103 103 107 109 111 112 112 110 108 114 119 119 121 121 126 129 131 133 135
84 81 78 76 78 76 73 71 68 66 64 63 61 61 62 64 65 66 65 67 71 75 81 83 80 86 91 92 97 100 103 103 107 111 113 116 116 116 114 117 122 121 124 122 127 125 123 129 136
81 82 80 77 78 77 73 71 67 65 62 62 60 59 60 63 66 66 67 68 68 71 77 80 78 80 87 90 99 107 110 108 109 112 115 118 120 117 119 124 125 126 124 123 121 116 113 127 140
82 80 80 77 76 74 73 69 65 64 61 59 58 56 57 60 63 66 67 66 67 71 74 77 75 75 82 87 95 103 104 107 111 113 113 118 120 116 117 119 127 129 126 127 130 122 108 124 137
82 80 78 77 75 73 72 68 63 60 58 57 56 55 56 57 59 64 65 65 66 69 72 74 75 77 82 84 89 99 104 109 111 112 114 118 114 117 125 125 128 131 130 127 127 128 114 113 124
84 80 79 77 75 73 71 67 62 58 56 54 54 54 55 56 58 61 62 62 63 67 72 74 74 78 82 87 89 98 107 112 112 114 116 117 112 113 122 128 129 131 133 131 132 136 128 127 128
85 80 75 74 72 70 67 62 58 56 53 51 51 51 52 54 56 58 59 59 63 68 72 73 77 79 79 84 90 96 101 109 113 118 118 118 115 110 110 119 125 134 140 141 143 140 138 129 130
81 78 73 73 72 68 64 61 57 55 51 49 47 46 47 53 53 53 55 56 59 61 63 67 70 72 75 82 92 95 102 114 117 116 119 119 121 120 114 115 120 128 140 147 151 156 158 142 139
80 76 72 73 73 69 64 60 59 56 50 49 46 43 44 48 49 52 53 55 58 58 59 62 67 70 73 80 93 102 106 113 123 123 125 121 119 121 118 121 123 129 138 143 149 159 164 152 152
76 75 74 71 69 67 62 57 56 52 50 47 46 45 46 45 46 47 48 53 56 57 59 60 67 73 72 74 83 92 105 114 128 135 128 123 120 129 133 131 137 141 153 157 158 159 165 152 154
76 77 75 69 65 60 57 54 50 46 46 47 48 46 45 43 44 45 47 50 50 54 57 63 67 68 67 69 75 81 89 98 119 128 135 136 133 139 146 144 151 156 169 172 175 176 173 165 157
80 78 73 67 62 57 53 51 48 44 44 43 43 40 43 45 45 46 47 48 50 52 56 60 64 66 65 63 67 71 75 83 110 120 131 138 137 145 159 169 173 183 190 192 190 195 194 201 212
79 78 72 68 62 57 53 49 43 38 38 40 40 39 40 41 43 47 50 49 50 52 55 57 61 66 68 64 62 68 70 74 96 118 128 137 134 149 152 154 201 209 215 212 208 207 210 216 217
80 72 69 63 58 49 50 46 40 36 33 33 33 34 37 37 38 43 48 47 48 51 53 54 56 56 58 62 63 70 66 63 72 86 107 144 170 191 199 202 230 232 222 218 217 220 224 230 233
69 64 64 59 53 46 43 42 37 33 28 26 29 30 33 37 37 40 44 46 45 44 51 55 50 49 47 51 57 71 79 81 92 103 156 191 207 213 226 240 251 247 235 232 232 235 237 236 237
63 59 54 51 48 42 42 42 35 28 23 20 23 28 32 36 37 39 40 40 37 36 42 41 38 38 37 40 58 68 75 81 100 142 213 247 245 252 257 260 257 257 250 250 247 243 243 245 245
83 60 49 44 43 44 42 37 30 26 21 19 17 18 23 30 31 32 34 32 28 26 29 26 29 28 27 27 33 45 36 56 78 154 205 256 261 270 275 267 261 264 264 259 252 247 247 250 250
228 247 31 27 28 41 40 32 24 15 14 17 14 13 19 23 25 26 28 26 19 12 7 11 17 16 15 10 13 9 4 340 308 310 298 301 295 288 282 279 280 272 268 268 266 260 258 257 260
246 263 290 330 345 8 23 23 16 14 13 14 16 17 17 15 16 17 16 15 8 355 340 338 340 342 343 342 339 333 323 297 290 288 288 285 286 287 286 277 276 275 274 275 275 269 267 263 263
250 263 274 287 300 316 338 354 360 9 10 9 10 9 9 10 9 9 5 356 351 342 334 328 332 326 318 317 321 319 303 281 275 277 275 280 283 281 278 274 277 280 284 281 279 277 271 267 266
254 265 275 284 289 294 303 323 340 349 355 360 2 4 4 3 5 3 356 350 342 334 327 322 319 314 308 302 303 307 305 286 267 262 266 278 281 280 282 280 278 283 286 285 284 282 282 273 267
258 264 268 273 279 286 294 307 320 329 338 349 350 353 356 354 350 348 343 341 338 330 317 316 306 300 297 288 285 289 290 283 273 270 270 277 277 272 275 277 279 282 283 285 290 288 283 284 273
258 260 263 266 273 278 285 294 311 317 322 331 336 340 342 342 339 330 323 320 321 318 311 304 299 287 281 281 275 278 281 282 278 275 275 278 277 271 271 271 274 277 282 285 289 289 284 285 286
259 258 262 266 272 275 282 289 301 309 312 312 316 319 325 328 328 323 316 312 311 313 310 307 297 286 278 280 277 279 282 286 284 281 280 280 280 277 275 273 272 276 280 282 282 282 281 283 285
258 260 263 268 273 279 283 286 294 300 305 306 306 306 311 318 322 320 309 306 305 307 311 308 304 292 282 281 277 280 282 282 284 282 282 283 282 279 277 277 275 276 278 280 282 282 282 282 283
259 262 267 271 277 281 281 286 293 297 299 300 304 306 308 310 311 314 310 306 304 302 306 306 306 300 289 282 283 284 286 285 284 284 283 283 282 279 276 276 276 277 277 278 278 279 281 281 280
260 263 267 271 274 278 283 287 290 294 295 296 301 306 308 306 308 309 309 302 299 301 302 303 303 302 296 289 286 285 285 288 283 281 284 281 281 280 279 276 277 278 279 278 276 276 278 280 278
259 262 265 269 274 278 281 286 291 294 295 296 298 301 305 307 307 308 305 299 295 297 299 300 302 298 295 290 287 286 287 288 284 282 283 281 280 279 278 279 278 278 279 278 276 276 276 278 277
258 261 265 268 271 276 280 286 291 292 294 298 299 299 301 302 304 305 300 296 295 295 297 297 300 299 293 292 287 287 287 286 284 281 279 278 276 278 278 278 279 279 279 277 277 277 276 278 278
259 262 266 268 270 274 279 286 289 288 291 296 298 300 301 300 300 300 299 295 293 293 296 298 297 298 294 290 289 287 287 290 287 285 281 280 278 275 275 277 280 280 279 277 277 278 277 278 277
Height
5886 5887 5887 5887 5887 5886 5884 5884 5883 5883 5883 5882 5882 5881 5881 5880 5881 5882 5880 5878 5878 5877 5877 5877 5877 5876 5876 5876 5876 5877 5877 5878 5879 5879 5880 5881 5881 5882 5883 5883 5884 5885 5886 5886 5887 5888 5889 5889 5890
5889 5889 5890 5890 5888 5887 5887 5886 5885 5885 5885 5884 5884 5883 5882 5882 5881 5881 5880 5880 5879 5879 5879 5878 5878 5877 5877 5877 5877 5878 5878 5879 5880 5880 5881 5882 5882 5883 5884 5884 5885 5886 5886 5887 5888 5888 5889 5890 5891
5891 5892 5892 5891 5890 5889 5889 5888 5888 5887 5887 5886 5886 5885 5885 5884 5883 5882 5882 5882 5881 5881 5880 5880 5879 5878 5878 5878 5878 5879 5879 5880 5881 5881 5882 5883 5883 5884 5884 5885 5886 5886 5887 5888 5889 5889 5890 5891 5891
5894 5895 5894 5894 5892 5891 5891 5890 5890 5889 5889 5888 5888 5887 5886 5886 5885 5884 5884 5883 5883 5882 5881 5881 5880 5880 5879 5879 5879 5880 5880 5881 5881 5882 5883 5883 5884 5884 5885 5886 5887 5887 5888 5889 5889 5889 5891 5891 5891
5896 5896 5896 5895 5894 5894 5893 5892 5892 5891 5891 5890 5889 5889 5888 5888 5887 5886 5885 5885 5884 5883 5883 5882 5881 5880 5880 5880 5880 5881 5881 5882 5882 5883 5883 5884 5885 5885 5886 5887 5887 5888 5889 5890 5890 5890 5891 5892 5892
5899 5898 5898 5897 5896 5896 5895 5894 5894 5893 5893 5892 5891 5891 5890 5889 5888 5888 5887 5886 5886 5885 5884 5883 5882 5881 5881 5881 5881 5882 5882 5883 5883 5884 5884 5885 5885 5885 5886 5887 5888 5889 5889 5890 5891 5891 5892 5892 5893
5901 5900 5899 5899 5898 5898 5898 5896 5895 5895 5895 5894 5893 5892 5891 5891 5890 5889 5888 5888 5887 5886 5885 5884 5883 5883 5883 5883 5883 5883 5883 5884 5884 5884 5885 5885 5886 5886 5887 5887 5888 5889 5890 5891 5891 5891 5892 5892 5892
5902 5903 5902 5901 5901 5900 5900 5898 5898 5897 5897 5896 5895 5894 5893 5892 5891 5890 5889 5889 5888 5887 5886 5885 5885 5884 5884 5884 5884 5884 5884 5885 5885 5885 5885 5886 5886 5887 5887 5888 5889 5889 5890 5891 5891 5892 5892 5892 5892
5904 5905 5903 5903 5903 5902 5902 5900 5900 5899 5899 5897 5896 5895 5894 5893 5892 5892 5891 5890 5889 5888 5887 5886 5886 5886 5885 5885 5885 5885 5885 5886 5886 5886 5886 5886 5887 5887 5888 5888 5889 5890 5890 5891 5891 5892 5892 5892 5892
5906 5906 5906 5905 5905 5904 5903 5902 5902 5901 5900 5899 5898 5897 5895 5895 5894 5892 5891 5890 5890 5889 5888 5888 5887 5887 5886 5886 5886 5886 5886 5886 5886 5886 5887 5887 5888 5888 5888 5889 5889 5890 5890 5891 5892 5892 5892 5892 5892
5908 5908 5907 5907 5906 5905 5905 5904 5904 5903 5902 5901 5900 5898 5897 5896 5895 5894 5892 5891 5890 5890 5889 5888 5888 5887 5887 5887 5886 5886 5886 5887 5887 5887 5887 5888 5888 5888 5889 5889 5889 5890 5890 5891 5891 5892 5892 5892 5892
5910 5910 5909 5909 5908 5907 5906 5906 5906 5905 5904 5902 5901 5900 5899 5897 5896 5895 5894 5892 5891 5890 5889 5889 5888 5888 5887 5887 5887 5887 5887 5887 5887 5887 5887 5888 5888 5888 5889 5889 5889 5890 5890 5891 5891 5892 5892 5892 5892
5912 5912 5911 5910 5910 5909 5908 5908 5907 5906 5905 5903 5902 5901 5900 5899 5897 5896 5894 5893 5892 5891 5890 5889 5889 5888 5888 5887 5887 5887 5887 5887 5887 5887 5888 5888 5888 5889 5889 5889 5889 5889 5890 5890 5891 5891 5892 5892 5892
5914 5913 5913 5912 5911 5910 5910 5909 5908 5907 5906 5905 5903 5902 5901 5899 5898 5896 5895 5894 5893 5892 5891 5890 5889 5889 5888 5888 5888 5888 5887 5887 5887 5887 5888 5888 5888 5888 5889 5889 5889 5889 5889 5889 5890 5890 5891 5891 5891
5914 5914 5914 5913 5913 5912 5911 5911 5909 5908 5907 5906 5904 5902 5901 5900 5898 5897 5895 5894 5893 5892 5891 5890 5890 5889 5889 5888 5888 5888 5888 5888 5888 5888 5888 5888 5888 5888 5888 5888 5888 5888 5888 5888 5889 5889 5890 5890 5890
5915 5915 5915 5915 5914 5913 5914 5912 5910 5908 5907 5906 5904 5903 5901 5900 5899 5898 5896 5895 5894 5893 5891 5891 5890 5890 5889 5889 5888 5888 5888 5888 5888 5888 5888 5888 5888 5888 5888 5888 5888 5888 5888 5888 5888 5888 5889 5889 5889
5916 5916 5916 5916 5915 5914 5914 5912 5911 5909 5908 5906 5905 5903 5902 5900 5899 5898 5896 5895 5894 5893 5892 5891 5890 5890 5889 5889 5889 5889 5888 5888 5888 5888 5888 5887 5888 5888 5887 5887 5887 5887 5887 5887 5887 5887 5888 5888 5888
5916 5916 5916 5916 5915 5914 5913 5913 5912 5910 5908 5907 5905 5903 5902 5900 5899 5897 5896 5896 5894 5893 5893 5892 5891 5890 5889 5889 5889 5889 5888 5888 5888 5888 5887 5887 5887 5887 5887 5886 5886 5886 5886 5886 5886 5886 5886 5886 5887
5916 5916 5916 5915 5915 5914 5913 5913 5912 5910 5908 5907 5905 5903 5902 5901 5899 5898 5896 5896 5895 5894 5893 5892 5890 5889 5889 5888 5888 5888 5888 5887 5887 5887 5887 5887 5886 5886 5886 5885 5885 5885 5885 5885 5885 5885 5885 5885 5885
5915 5915 5915 5915 5914 5914 5913 5912 5911 5910 5909 5907 5905 5903 5902 5900 5899 5898 5896 5895 5894 5893 5892 5891 5890 5889 5889 5888 5888 5887 5887 5887 5886 5886 5886 5886 5885 5885 5885 5884 5884 5884 5883 5883 5883 5883 5883 5883 5883
5913 5914 5914 5914 5913 5913 5912 5912 5911 5910 5909 5907 5905 5903 5902 5900 5899 5897 5896 5895 5893 5892 5891 5890 5890 5889 5888 5887 5887 5886 5886 5885 5885 5885 5885 5884 5884 5884 5883 5883 5883 5882 5882 5882 5881 5881 5881 5881 5880
5911 5912 5912 5912 5911 5911 5911 5911 5910 5909 5908 5906 5904 5903 5901 5899 5898 5896 5895 5893 5892 5891 5890 5889 5888 5888 5887 5886 5886 5885 5885 5884 5884 5883 5883 5883 5882 5882 5882 5881 5881 5881 5881 5880 5880 5879 5878 5878 5877
5909 5910 5910 5910 5909 5909 5909 5909 5909 5907 5906 5905 5903 5902 5900 5898 5896 5895 5893 5892 5891 5890 5888 5887 5886 5886 5885 5884 5884 5884 5883 5882 5882 5881 5881 5881 5880 5880 5880 5879 5879 5879 5878 5878 5878 5877 5876 5875 5875
5907 5907 5907 5907 5907 5907 5907 5907 5907 5905 5904 5903 5902 5900 5898 5896 5895 5893 5891 5890 5889 5888 5887 5885 5884 5882 5882 5882 5882 5882 5881 5880 5880 5879 5879 5879 5878 5877 5877 5877 5877 5876 5876 5875 5875 5874 5874 5873 5872
5904 5905 5905 5904 5904 5904 5904 5904 5905 5903 5902 5901 5899 5898 5896 5894 5893 5891 5890 5888 5887 5886 5885 5883 5882 5880 5879 5879 5879 5879 5878 5878 5877 5877 5876 5876 5876 5875 5875 5874 5874 5873 5873 5872 5872 5871 5871 5870 5869
5900 5901 5902 5902 5901 5901 5901 5900 5902 5900 5899 5897 5896 5895 5893 5892 5890 5889 5887 5886 5885 5884 5882 5881 5880 5878 5877 5876 5875 5875 5875 5875 5875 5874 5873 5873 5872 5872 5872 5871 5871 5870 5869 5869 5868 5868 5867 5867 5866
5897 5897 5898 5898 5897 5897 5897 5898 5898 5896 5895 5894 5893 5891 5890 5888 5887 5886 5884 5883 5882 5881 5879 5878 5877 5876 5874 5873 5873 5872 5872 5871 5871 5870 5869 5869 5868 5868 5867 5867 5866 5866 5865 5865 5864 5864 5863 5863 5862
5894 5894 5894 5894 5893 5893 5894 5893 5894 5892 5892 5891 5889 5888 5886 5885 5883 5882 5881 5879 5878 5877 5876 5875 5873 5872 5871 5870 5869 5868 5868 5867 5867 5866 5865 5864 5864 5863 5863 5862 5862 5861 5860 5860 5859 5859 5859 5858 5857
5889 5889 5889 5889 5889 5889 5889 5892 5890 5889 5888 5886 5885 5884 5882 5881 5879 5878 5876 5875 5874 5873 5872 5871 5869 5868 5867 5866 5865 5864 5863 5863 5861 5861 5860 5859 5858 5858 5857 5857 5856 5856 5855 5854 5854 5854 5853 5853 5852
5884 5884 5885 5885 5885 5884 5884 5888 5885 5884 5883 5882 5880 5879 5877 5876 5875 5873 5872 5871 5870 5869 5868 5866 5865 5864 5863 5861 5860 5859 5858 5857 5856 5855 5854 5853 5852 5852 5851 5851 5850 5850 5849 5849 5848 5848 5847 5847 5847